Regional Weather Roundup
Issued by NWS

Home | Current Version | Previous Version | Text Only | Print | Product List | Glossary On
Versions: 1 2 3 4 5 6 7 8 9 10 11 12 13 14 15 16 17 18 19 20 21 22 23 24 25 26 27 28 29 30 31 32 33 34 35 36 37 38 39 40 41 42 43 44 45 46 47 48 49 50
000
ASUS44 KLUB 210510
RWRTX
WEST TEXAS WEATHER ROUNDUP
NATIONAL WEATHER SERVICE LUBBOCK TX
1100 PM CST FRI JAN 20 2017

NOTE: "FAIR" INDICATES FEW OR NO CLOUDS BELOW 12,000 FEET WITH NO
SIGNIFICANT WEATHER AND/OR OBSTRUCTIONS TO VISIBILITY.

TXZ004-006>008-010-012-014-016-OKZ002-210600-
TEXAS PANHANDLE/OKLAHOMA PANHANDLE

CITY           SKY/WX    TMP DP  RH WIND       PRES   REMARKS
AMARILLO       PTCLDY    48  29  47 W13       29.58S
BORGER         CLOUDY    47  26  44 W10       29.57R
CANADIAN       CLEAR     31  29  92 SW3       29.58S
DALHART        CLOUDY    42  26  53 SW10      29.56S
DUMAS          CLOUDY    38  25  58 W9        29.56S WCI  32
GUYMON         CLEAR     28  26  92 SW7       29.54R WCI  21
HEREFORD       PTCLDY    44  32  62 W13       29.61S
PAMPA          CLEAR     43  28  56 W9        29.58S
PERRYTON       CLEAR     34  33  94 SW6       29.54S WCI  29
$$

TXZ026-029-035-045-048-210600-
SOUTHERN PANHANDLE/SOUTH PLAINS/ROLLING PLAINS

CITY           SKY/WX    TMP DP  RH WIND       PRES   REMARKS
CHILDRESS      PTCLDY    47  34  60 SW7       29.61S
SEMINOLE       PTCLDY    44  32  62 CALM      29.64F
LUBBOCK        PTCLDY    42  32  67 NW5       29.61F
PLAINVIEW      PTCLDY    38  32  78 W8        29.61F WCI  32
SNYDER         CLEAR     49  33  55 S10       29.67S
$$

TXZ052-054-060>062-072-078-127-140-154-169-210600-
PERMIAN BASIN/CONCHO VALLEY/BIG COUNTRY/EDWARDS PLATEAU

CITY           SKY/WX    TMP DP  RH WIND       PRES   REMARKS
ABILENE        CLEAR     48  35  60 S5        29.66F
BIG SPRING     CLEAR     44  35  70 SE6       29.68F
BROWNWOOD      CLEAR     43  39  87 N3        29.68S
JUNCTION       CLEAR     49  40  71 CALM      29.69F
MIDLAND        CLEAR     47  34  60 S5        29.65F
ODESSA         PTCLDY    48  31  51 SE8       29.66F
SAN ANGELO     CLEAR     46  34  62 SW6       29.67S
SONORA         CLEAR     43  34  70 CALM      29.72F
SWEETWATER     CLEAR     52  33  48 S8        29.69S
WINK           PTCLDY    47  35  63 S5        29.64S
$$

TXZ055-058-074-075-080-082-210600-
FAR WEST/SOUTHWEST MOUNTAINS/TRANS PECOS

CITY           SKY/WX    TMP DP  RH WIND       PRES   REMARKS
ALPINE         PTCLDY    48  18  30 CALM      29.76S
DRYDEN           N/A     53  33  46 N3        29.64F
EL PASO        LGT RAIN  51  35  54 SW14      29.71R
FORT STOCKTON  CLEAR     47  24  40 SW7       29.67R
GUADALUPE PASS CLOUDY    45  28  51 W39G52    29.69R
MARFA          CLOUDY    38  24  57 N5        29.75R WCI  34
PECOS          CLEAR     43  34  70 W6        29.65S
$$

TXZ014-016-019-021>030-083-210600
TEXAS TECH WEST TEXAS MESONET/TEXAS PANHANDLE/NORTHERN SOUTH PLAINS

CITY           SKY/WX    TMP DP  RH WIND       PRES   REMARKS
ABERNATHY 5ENE   N/A     40  33  75 W6        29.63F
AMARILLO 9NNE    N/A     48  29  47 SW9       29.58F
AMARILLO 7SSE    N/A     40  28  62 SW8       29.60F WCI  35
AMHERST 1NE      N/A     37  31  79 W6        29.62F WCI  32
BOOTLEG 11WNW    N/A     35  27  73 W9        29.62F WCI  28
CANADIAN 6E      N/A     37  33  86 W3        29.56S
CAPROCK CYN SP   N/A     47  33  57 SW6       29.62F
CHILDRESS 2NNE   N/A     51  33  50 SW8       29.60S
CLARENDON 2WSW   N/A     50  28  43 SW12      29.59S
CLAUDE 12SW      N/A     49  28  44 SW14      29.59S
DIMMITT 2NE      N/A     37  31  78 SW7       29.62F WCI  31
FLOYDADA 2NNE    N/A     39  31  73 SW8       29.62F WCI  34
FRIONA 2NE       N/A     34  28  79 S9        29.63R WCI  27
GOODLETT 3W      N/A     44  35  70 SW8       29.60S
HART 3N          N/A     35  31  85 W6        29.62F WCI  30
HEREFORD 2NW     N/A     40  28  61 SW10      29.61S WCI  33
MCLEAN 1E        N/A     50  26  39 W16       29.56R
MEMPHIS 1NE      N/A     48  34  58 SW10      29.60S
MULESHOE 2SSW    N/A     34  29  83 SW2       29.63S
OLTON 6S         N/A     36  31  81 W3        29.62F
PALO DURO SP     N/A     43  28  53 SW5       29.61F
PAMPA 2E         N/A     45  28  50 W12       29.56F
PLAINVIEW 1S     N/A     40  33  77 W5        29.62F
SILVERTON 7ESE   N/A     43  32  64 SW6       29.62S
TULIA 2ENE       N/A     40  33  76 W8        29.61F WCI  35
TURKEY 2WSW      N/A     45  36  70 W8        29.61S
UMBARGER 3NNE    N/A     40  29  65 SW12      29.61R WCI  33
$$

TXZ033>036-039>041-045>048-210600
TEXAS TECH WEST TEXAS MESONET/SOUTH PLAINS

CITY           SKY/WX    TMP DP  RH WIND       PRES   REMARKS
AIKEN 3WSW       N/A     36  32  84 SW6       29.63F WCI  31
ANDREWS 2NE      N/A     47  31  53 S6        29.65F
ANTON 6SSW       N/A     40  33  76 SW8       29.62F WCI  34
BROWNFIELD 2S    N/A     46  32  58 SW7       29.64S
DENVR CTY 7WNW   N/A     43  31  62 S5        29.63F
GAIL 2ESE        N/A     46  31  57 S6        29.64S
LAMESA 2SE       N/A     39  33  80 SW6       29.65S WCI  35
LEVELLAND 4S     N/A     40  31  68 W7        29.61F
LUBBOCK 3WNW     N/A     41  30  64 W5        29.63F
MORTON 1ENE      N/A     41  31  66 SW3       29.62F
ODONNELL 1N      N/A     41  31  69 W8        29.63F
PLAINS 3N        N/A     48  31  52 SW9       29.62F
RALLS 1SE        N/A     44  31  59 W7        29.62F
REESE CENTER     N/A     39  31  75 NW6       29.62F WCI  35
SEAGRAVES 1SW    N/A     46  32  57 SW7       29.63F
SEMINOLE 2NNE    N/A     46  30  52 SW3       29.63F
SLATON 2NE       N/A     42  35  75 S8        29.64R
SNYDER 3E        N/A     46  34  62 S8        29.66S
SUNDOWN 8SW      N/A     44  31  61 S9        29.62S
TAHOKA 3NNE      N/A     45  30  55 S7        29.64S
WOLFFORTH 6SSW   N/A     45  32  60 SW7       29.63S
$$

TXZ031-032-036>038-042>044-210600-
TEXAS TECH WEST TEXAS MESONET/ROLLING PLAINS

CITY           SKY/WX    TMP DP  RH WIND       PRES   REMARKS
ASPERMONT 3NE    N/A     49  35  57 S8        29.63S
FLUVANNA 3WNW    N/A     48  29  48 SW6       29.64F
GRAHAM 5SSW      N/A     48  30  50 W10       29.63F
GUTHRIE 10WSW    N/A     51  31  45 W6        29.61F
HASKELL 1NW      N/A     47  37  68 S7        29.64R
JAYTON 1SSE      N/A     52  30  42 SW6       29.63S
KNOX CITY 3NW    N/A     50  38  63 SW5       29.63S
LK A HENRY 1NW   N/A     48  30  49 SW7       29.62F
NORTHFIELD 1S    N/A     48  36  61 W7        29.61S
ODELL 4ENE       N/A     43  36  75 SW7       29.60F
PADUCAH 10SW     N/A     50  34  53 SW9       29.62S
POST 1NE         N/A     52  29  41 SW8       29.63F
RRING SPRGS 3N   N/A     44  35  69 W7        29.62S
SEYMOUR 3NW      N/A     46  39  76 S3        29.62S
SPUR 1W          N/A     44  33  65 NW2       29.62F
WEINERT 2NNE     N/A     50  39  65 S7        29.64R
WHITE RVR 6NE    N/A     46  32  58 S8        29.62F
$$

TXZ052-054-060>062-072-078-127-140-154-169-210600-
TEXAS TECH WEST TEXAS MESONET/PERMIAN BASIN/
CONCHO VALLEY/BIG COUNTRY/EDWARDS PLATEAU

CITY           SKY/WX    TMP DP  RH WIND       PRES   REMARKS
COYANOSA 2N      N/A     47  29  49 E6        29.65F
JUNCTION 1SSW    N/A     46  39  76 S3        29.69F
MERTZON 3NNE     N/A     45  33  61 SW2       29.68F
SAN ANGELO 7NW   N/A     43  33  68 W2        29.67F
STRLNG CT 4WSW   N/A     36  32  84 CALM      29.68F
ST LAWRNCE 5SW   N/A     48  34  58 SE2       29.67F
SWEETWATR 11SW   N/A     50  31  48 S3        29.68F
WALL 1E          N/A     50  34  54 CALM      29.68S
$$

TXZ055-058-074-075-080-082-210600-
TEXAS TECH WEST TEXAS MESONET/FAR WEST/SOUTHWEST MOUNTAINS/TRANS PECOS

CITY           SKY/WX    TMP DP  RH WIND       PRES   REMARKS
PRSMN GAP BBNP   N/A     52  22  30 SW2       29.67S
GUADLPE MTN NP   N/A     44  30  58 W20       29.70R
$$



USA.gov is the U.S. government's official web portal to all federal, state and local government web resources and services.